Location: Corralito
(10.2667°N, 66.9500°W)
Time: 02:56:54
(UTC+00:00)

Haruka - Pass Details

Date: 30 November 2023
Orbit: 529 x 21178 km, 31.2° (Epoch: 21 February)

Event Time Altitude Azimuth Distance (km) Brightness Sun altitude
Rises 19:14:41 0° 303° (WNW) 7,052 8.2 35.9°
Reaches altitude 10° 19:17:39 10° 305° (NW) 6,843 8.2 35.3°
Maximum altitude 20:03:16 82° 45° (NE) 12,562 9.4 25.9°
Drops below altitude 10° 00:20:56 10° 138° (SE) 13,248 9.0 -32.6°
Sets 00:29:58 0° 133° (SE) 12,361 8.9 -34.6°
